Morristown, NJ

5:19 AM EDT on May 29, 2017 (GMT -0400)
Morristown Municipal

Weather History for KMMU - January, 2013

Change the Weather History Date:

Tuesday, January 29, 2013

  Actual Average Record
Temperature  
Mean Temperature 43 °F -  
Max Temperature 53 °F 37 °F 69 °F (2002)
Min Temperature 33 °F 17 °F -14 °F (1961)
Degree Days  
Heating Degree Days 22    
Moisture  
Dew Point 36 °F    
Average Humidity 91    
Maximum Humidity 100    
Minimum Humidity 43    
Precipitation  
Precipitation 0.00 in - - ()
Sea Level Pressure  
Sea Level Pressure 30.07 in    
Wind  
Wind Speed 1 mph (SE)    
Max Wind Speed 15 mph    
Max Gust Speed 18 mph    
Visibility 3 miles    
Events Fog    
Averages and records for this station are not official NWS values.
T = Trace of Precipitation, MM = Missing Value Source: NWS Daily Summary

Daily Weather History Graph

Daily Weather History Graph

Search for Another Location

Airport or City:

Trip Planner

Search our weather history database for the weather conditions in past years. The results will help you decide how hot, cold, wet, or windy it might be!

Date:

Astronomy

Jan. 29, 2013 Rise Set
Actual Time 7:10 AM EST 5:11 PM EST
Civil Twilight 6:41 AM EST 5:40 PM EST
Nautical Twilight 6:08 AM EST 6:13 PM EST
Astronomical Twilight 5:35 AM EST 6:46 PM EST
Moon 8:06 PM EST 8:04 AM EST
Length of Visible Light 10h 59m
Length of Day
10h 01m
Waning Gibbous, 94% of the Moon is Illuminated
Jan 29
Waning Gibbous
Feb 3
Last Quarter
Feb 10
New
Feb 17
First Quarter
Feb 25
Full

Hourly Weather History & Observations

Time (EST) Temp. Windchill Dew Point Humidity Pressure Visibility Wind Dir Wind Speed Gust Speed Precip Events Conditions
12:15 AM 33.8 °F - 33.8 °F 100% 30.01 in 3.0 mi Calm Calm - N/A   Overcast
12:35 AM 33.8 °F - 33.8 °F 100% 30.01 in 3.0 mi Calm Calm - N/A   Overcast
12:55 AM 33.8 °F - 33.8 °F 100% 30.00 in 3.0 mi Calm Calm - N/A   Overcast
1:15 AM 33.8 °F - 33.8 °F 100% 30.01 in 3.0 mi Calm Calm - N/A   Overcast
1:35 AM 33.8 °F - 33.8 °F 100% 30.01 in 3.0 mi Calm Calm - N/A   Overcast
1:55 AM 33.8 °F - 33.8 °F 100% 30.01 in 2.5 mi Calm Calm - N/A   Overcast
2:15 AM 33.8 °F - 33.8 °F 100% 30.02 in 2.5 mi Calm Calm - N/A   Overcast
2:35 AM 33.8 °F - 33.8 °F 100% 30.01 in 2.0 mi Calm Calm - N/A   Overcast
2:55 AM 33.8 °F - 33.8 °F 100% 30.01 in 1.5 mi Calm Calm - N/A   Overcast
3:15 AM 33.8 °F - 33.8 °F 100% 30.01 in 1.5 mi Calm Calm - N/A   Overcast
3:35 AM 33.8 °F - 33.8 °F 100% 30.01 in 1.8 mi Calm Calm - N/A   Overcast
3:55 AM 33.8 °F 30.8 °F 33.8 °F 100% 30.02 in 2.0 mi NE 3.5 mph - N/A   Overcast
4:15 AM 33.8 °F 30.8 °F 33.8 °F 100% 30.02 in 2.0 mi NE 3.5 mph - N/A   Overcast
4:35 AM 33.8 °F - 33.8 °F 100% 30.03 in 2.0 mi Calm Calm - N/A   Overcast
4:55 AM 33.8 °F - 33.8 °F 100% 30.04 in 1.8 mi Calm Calm - N/A   Overcast
5:15 AM 33.8 °F - 33.8 °F 100% 30.05 in 2.0 mi Calm Calm - N/A   Overcast
5:35 AM 35.6 °F - 35.6 °F 100% 30.07 in 2.5 mi Calm Calm - N/A   Overcast
7:45 AM 35.6 °F - 35.6 °F 100% 30.11 in 5.0 mi Calm Calm - N/A   Overcast
8:45 AM 39.2 °F - 37.4 °F 93% 30.12 in 5.0 mi Calm Calm - N/A   Overcast
9:45 AM 44.6 °F - 41.0 °F 87% 30.13 in 5.0 mi Calm Calm - N/A   Mostly Cloudy
10:45 AM 50.0 °F - 42.8 °F 76% 30.13 in 10.0 mi Calm Calm - N/A   Mostly Cloudy
11:45 AM 50.0 °F - 41.0 °F 71% 30.11 in 10.0 mi East 5.8 mph - N/A   Mostly Cloudy
12:45 PM 53.6 °F - 41.0 °F 62% 30.10 in 10.0 mi South 6.9 mph - N/A   Overcast
1:45 PM 53.6 °F - 41.0 °F 62% 30.07 in 10.0 mi South 6.9 mph - N/A   Overcast
2:45 PM 46.4 °F 40.1 °F 24.8 °F 43% 30.08 in 6.0 mi SSE 15.0 mph 18.4 mph N/A   Haze
3:55 PM 44.6 °F 40.7 °F 39.2 °F 81% 30.11 in 5.0 mi SSE 6.9 mph - N/A   Overcast
4:25 PM 44.6 °F - 39.2 °F 81% 30.12 in 2.5 mi Calm Calm - N/A   Overcast
4:45 PM 42.8 °F 41.1 °F 39.2 °F 87% 30.11 in 2.0 mi SE 3.5 mph - N/A   Overcast
5:45 PM 42.8 °F 41.1 °F 39.2 °F 87% 30.12 in 2.0 mi ESE 3.5 mph - N/A   Light Drizzle
6:45 PM 42.8 °F 41.1 °F 24.8 °F 49% 30.12 in 2.0 mi SW 3.5 mph - N/A   Light Drizzle
7:45 PM 41.0 °F - 39.2 °F 93% 30.12 in 2.0 mi Calm Calm - N/A   Light Drizzle
8:45 PM 41.0 °F - 39.2 °F 93% 30.12 in 2.0 mi Calm Calm - N/A   Light Drizzle
9:45 PM 41.0 °F - 39.2 °F 93% 30.10 in 1.5 mi Calm Calm - N/A   Overcast
9:55 PM 39.2 °F - 39.2 °F 100% 30.10 in 1.0 mi Calm Calm - N/A   Overcast
10:15 PM 39.2 °F - 39.2 °F 100% 30.10 in 0.8 mi Calm Calm - N/A   Overcast
10:35 PM 39.2 °F - 39.2 °F 100% 30.10 in 1.0 mi Calm Calm - N/A   Overcast
10:55 PM 39.2 °F - 39.2 °F 100% 30.09 in 0.5 mi Calm Calm - N/A Fog Fog
11:15 PM 39.2 °F - 39.2 °F 100% 30.09 in 0.5 mi Calm Calm - N/A Fog Fog
11:35 PM 39.2 °F - 39.2 °F 100% 30.09 in 0.5 mi Calm Calm - N/A Fog Fog
11:55 PM 39.2 °F 37.0 °F 39.2 °F 100% 30.08 in 0.8 mi NE 3.5 mph - N/A   Overcast